Погода в Борках

Россия / Псковская область     56°04′48″N   30°14′55″E
темп.,
°C
ветер,
м/с
пор.,
м/с
влажн.,
%
обл.,
%
осадки,
мм/ч
давл.,
гПа
погр.,
м
26 октября, вт
вт2600:00+2юз4138295 0.0 1024461
03:00+2ююз41380100 0.0 1023437
06:00+2ююз41279100 0.0 1021381
09:00+2ююз41277100 0.0 1020384
12:00+5ююз41266100 0.0 1019515
15:00+6юз41163100 0.0 1017669
18:00+5ююз41270100 0.0 1017491
21:00+5юз41373100 0.0 1016481
27 октября, ср
ср2700:00+4ююз41278100 0.0 1015431
03:00+4ююз41181100 0.0 1013414
06:00+5юз41288100 0.4 1012487
09:00+6з41295100 3.1 1012701
12:00+7з41084100 0.1 1014932
15:00+8з5977100 0.1 10151152
18:00+7зюз3983100 0.1 1015458
21:00+7юз41286100 0.1 1014545
28 октября, чт
чт2800:00+7юз51394100 1.3 1012731
03:00+9зюз51494100 4.3 1010803
06:00+10зюз61393100 1.1 1010906
09:00+10з51294100 1.4 1012953
12:00+11зсз51186100 0.6 1014974
15:00+12зсз510786 0.8 10161041
18:00+9зсз389240 0.0 1018244
21:00+7зсз2795100 0.0 1021188
29 октября, пт
пт2900:00+7зсз1194100 0.0 102211
03:00+8юз2292100 0.0 102352
06:00+8ю2596100 0.0 1023156
09:00+9зюз3796100 0.1 1024436
12:00+11юз358213 0.0 1025414
15:00+13юз36775 0.0 1025523
18:00+10ююз28935 0.0 1025152
21:00+9ююз3119581 0.0 1025284
30 октября, сб
сб3000:00+10ююз4139341 0.0 1025419
03:00+9ююз4149350 0.0 1025483
06:00+9ююз4159443 0.0 1025488
09:00+9ююз415925 0.0 1024520
12:00+12ююз515807 0.0 1023654
15:00+13ююз51475100 0.0 1022865
18:00+11ююз514818 0.0 1022685
21:00+10ююз5148455 0.0 1022604